Tracking 29069 objects as of 18-Jul-2024
HD Live streaming from Space Station
objects crossing your sky now

CZ-4C DEB

Track CZ-4C DEB now!
10-day predictions


NORAD ID: 44613
Int'l Code: 2017-072D
Perigee: 803.4 km
Apogee: 1,145.4 km
Inclination: 98.6 °
Period: 104.4 minutes
Semi major axis: 7345 km
RCS: Unknown
Launch date: November 14, 2017
Source: People's Republic of China (PRC)
Launch site: Jiuquan Satellite Launch Center, China (JSC)

Note: This is SATELLITE DEBRIS
Your satellite tracking list
Your tracking list is empty




NASA's NSSDC Master Catalog

Two Line Element Set (TLE):
1 44613U 17072D   24200.19654907  .00000980  00000-0  81241-3 0  9990
2 44613  98.5674 292.0793 0232847  83.4175 279.3426 13.79051440321558
Source of the keplerian elements: AFSPC